Date String (YYYY-MM-DD hh:mm:ss) UTC,Instrument flags,absolute air pressure of the measurement (hPa),sample flow rate (lpm),inlet stack bypass flow (lpm),air temperature of the measurement (°C),ambient temperature measured by the external sensor (°C),aerosol sample conditioner tube jacket temperature (°C),OPC LED temperature (°C),internal box temperature (°C),relative humidity of the measurement (%),span deviation,mass concentration of particles derived from Lorenz-Mie calculation of OPC scattering (μg/m³),mass concentration of particles derived from Lorenz-Mie calculation of OPC scattering (μg/m³),mass concentration of particles derived from Lorenz-Mie calculation of OPC scattering (μg/m³)
DateTimeUTC,F1_M11,P_M11,Q1_M11,Q2_M11,T1_M11,T2_M11,T3_M11,T4_M11,T5_M11,U1_M11,ZSPAN_M11,X0_M11,X2_M11,X1_M11
2023-12-20 16:00:00,SystemResetWarning,0829.5,5.01,000.00,023.5,022.7,000.0,031.8,025.0,14.1,0000.0,0002.59,0001.51,0001.05
2023-12-20 16:01:00,SystemResetWarning,0829.6,4.99,000.00,023.5,022.8,000.0,031.8,025.0,14.9,0000.0,0002.63,0001.53,0001.05
2023-12-20 16:02:00,SystemResetWarning,0829.6,4.99,000.00,023.6,022.8,000.0,031.8,025.0,15.0,0000.0,0002.64,0001.54,0001.06
2023-12-20 16:03:00,SystemResetWarning,0829.6,5.00,000.00,023.6,022.8,000.0,031.8,025.0,14.9,0000.0,0002.74,0001.59,0001.07
2023-12-20 16:04:00,SystemResetWarning,0829.6,5.00,000.00,023.6,022.8,000.0,031.8,025.0,14.8,0000.0,0002.92,0001.62,0001.07
2023-12-20 16:05:00,SystemResetWarning,0829.6,5.01,000.00,023.6,022.8,000.0,031.8,025.0,14.7,0000.0,0003.77,0001.61,0001.07
2023-12-20 16:06:00,SystemResetWarning,0829.6,5.00,000.00,023.6,022.8,000.0,031.8,025.0,14.9,0000.0,0003.95,0001.63,0001.09
2023-12-20 16:07:00,SystemResetWarning,0829.7,5.00,000.00,023.6,022.8,000.0,031.8,025.1,15.2,0000.0,0004.01,0001.66,0001.09
2023-12-20 16:08:00,SystemResetWarning,0829.7,4.99,000.00,023.6,022.9,000.0,031.8,025.1,15.0,0000.0,0004.30,0001.66,0001.10
2023-12-20 16:09:00,SystemResetWarning,0829.7,4.99,000.00,023.6,022.9,000.0,031.8,025.1,14.5,0000.0,0005.61,0001.57,0001.09
2023-12-20 16:10:00,SystemResetWarning,0829.7,5.00,000.00,023.7,022.9,000.0,031.9,025.1,14.4,0000.0,0005.63,0001.55,0001.09
2023-12-20 16:11:00,SystemResetWarning,0829.7,5.00,000.00,023.7,022.9,000.0,031.9,025.1,14.6,0000.0,0005.53,0001.53,0001.09
2023-12-20 16:12:00,SystemResetWarning,0829.7,5.01,000.00,023.7,022.9,000.0,031.9,025.1,13.8,0000.0,0005.41,0001.48,0001.09
2023-12-20 16:13:00,SystemResetWarning,0829.7,5.01,000.00,023.7,022.9,000.0,031.9,025.2,13.3,0000.0,0005.37,0001.46,0001.07
2023-12-20 16:14:00,SystemResetWarning,0829.7,4.99,000.00,023.7,023.0,000.0,031.9,025.2,13.3,0000.0,0005.29,0001.40,0001.06
2023-12-20 16:15:00,SystemResetWarning,0829.7,4.99,000.00,023.7,023.0,000.0,031.9,025.2,13.1,0000.0,0005.05,0001.32,0001.05
2023-12-20 16:16:00,SystemResetWarning,0829.7,5.01,000.00,023.7,023.0,000.0,031.9,025.2,12.5,0000.0,0004.27,0001.30,0001.05
2023-12-20 16:17:00,SystemResetWarning,0829.7,5.01,000.00,023.8,023.0,000.0,031.9,025.2,12.7,0000.0,0004.07,0001.28,0001.03
2023-12-20 16:18:00,SystemResetWarning,0829.7,5.00,000.00,023.8,023.0,000.0,032.0,025.2,12.4,0000.0,0004.16,0001.26,0001.02
2023-12-20 16:19:00,SystemResetWarning,0829.7,5.00,000.00,023.8,023.0,000.0,032.0,025.2,12.4,0000.0,0003.95,0001.28,0001.01
2023-12-20 16:20:00,SystemResetWarning,0829.8,4.98,000.00,023.8,023.1,000.0,032.0,025.3,12.5,0000.0,0002.33,0001.27,0001.00
2023-12-20 16:21:00,SystemResetWarning,0829.8,5.00,000.00,023.8,023.1,000.0,032.0,025.3,12.2,0000.0,0002.06,0001.24,0000.99
2023-12-20 16:22:00,SystemResetWarning,0829.8,5.01,000.00,023.8,023.1,000.0,032.0,025.3,12.3,0000.0,0002.04,0001.23,0000.98
2023-12-20 16:23:00,SystemResetWarning,0829.8,5.01,000.00,023.9,023.1,000.0,032.0,025.4,12.0,0000.0,0003.65,0001.23,0000.97
2023-12-20 16:24:00,SystemResetWarning,0829.8,5.00,000.00,023.9,023.2,000.0,032.0,025.4,12.0,0000.0,0003.63,0001.21,0000.97
2023-12-20 16:25:00,SystemResetWarning,0829.8,4.99,000.00,023.9,023.2,000.0,032.1,025.4,11.9,0000.0,0003.60,0001.20,0000.96
2023-12-20 16:26:00,SystemResetWarning,0829.8,5.00,000.00,023.9,023.2,000.0,032.1,025.4,12.0,0000.0,0004.05,0001.20,0000.95
2023-12-20 16:27:00,SystemResetWarning,0829.8,4.99,000.00,023.9,023.2,000.0,032.1,025.5,11.8,0000.0,0004.36,0001.23,0000.94
2023-12-20 16:28:00,SystemResetWarning,0829.8,4.99,000.00,023.9,023.3,000.0,032.1,025.5,11.9,0000.0,0004.46,0001.22,0000.93
2023-12-20 16:29:00,SystemResetWarning,0829.9,5.00,000.00,024.0,023.3,000.0,032.1,025.5,12.1,0000.0,0004.61,0001.21,0000.93
2023-12-20 16:30:00,SystemResetWarning,0829.9,5.01,000.00,024.0,023.3,000.0,032.1,025.5,12.1,0000.0,0004.63,0001.19,0000.92
2023-12-20 16:31:00,SystemResetWarning,0829.8,5.00,000.00,024.0,023.3,000.0,032.2,025.5,12.2,0000.0,0005.10,0001.22,0000.92
2023-12-20 16:32:00,SystemResetWarning,0829.9,5.00,000.00,024.0,023.4,000.0,032.2,025.5,12.2,0000.0,0005.64,0001.25,0000.92
2023-12-20 16:33:00,SystemResetWarning,0829.9,5.01,000.00,024.0,023.4,000.0,032.2,025.5,12.2,0000.0,0005.93,0001.29,0000.92
2023-12-20 16:34:00,SystemResetWarning,0829.9,5.00,000.00,024.1,023.4,000.0,032.2,025.5,12.1,0000.0,0004.66,0001.28,0000.91
2023-12-20 16:35:00,SystemResetWarning,0829.9,5.00,000.00,024.1,023.4,000.0,032.2,025.5,12.1,0000.0,0004.69,0001.29,0000.90
2023-12-20 16:36:00,SystemResetWarning,0829.9,5.00,000.00,024.1,023.4,000.0,032.2,025.6,12.1,0000.0,0004.88,0001.28,0000.88
2023-12-20 16:37:00,SystemResetWarning,0830.0,4.99,000.00,024.1,023.5,000.0,032.3,025.6,12.2,0000.0,0005.55,0001.28,0000.88
2023-12-20 16:38:00,SystemResetWarning,0830.0,5.00,000.00,024.1,023.5,000.0,032.3,025.6,12.2,0000.0,0005.64,0001.29,0000.88
2023-12-20 16:39:00,SystemResetWarning,0830.0,5.00,000.00,024.2,023.5,000.0,032.3,025.6,12.2,0000.0,0005.47,0001.27,0000.88
2023-12-20 16:40:00,SystemResetWarning,0830.0,5.01,000.00,024.2,023.5,000.0,032.3,025.6,12.1,0000.0,0005.19,0001.27,0000.88
2023-12-20 16:41:00,SystemResetWarning,0830.0,5.01,000.00,024.2,023.5,000.0,032.3,025.6,12.1,0000.0,0005.08,0001.27,0000.88
2023-12-20 16:42:00,SystemResetWarning,0830.0,5.01,000.00,024.2,023.5,000.0,032.3,025.6,12.2,0000.0,0004.73,0001.25,0000.88
2023-12-20 16:43:00,SystemResetWarning,0830.0,4.99,000.00,024.2,023.6,000.0,032.4,025.7,12.2,0000.0,0004.08,0001.22,0000.88
2023-12-20 16:44:00,SystemResetWarning,0830.0,5.00,000.00,024.2,023.6,000.0,032.4,025.7,12.3,0000.0,0003.84,0001.18,0000.87
2023-12-20 16:45:00,SystemResetWarning,0830.0,5.00,000.00,024.3,023.6,000.0,032.4,025.7,12.2,0000.0,0003.90,0001.19,0000.87
2023-12-20 16:46:00,SystemResetWarning,0830.0,5.00,000.00,024.3,023.6,000.0,032.4,025.7,12.2,0000.0,0003.83,0001.20,0000.87
2023-12-20 16:47:00,SystemResetWarning,0830.0,5.00,000.00,024.3,023.6,000.0,032.4,025.7,12.8,0000.0,0003.82,0001.22,0000.88
2023-12-20 16:48:00,SystemResetWarning,0830.0,5.00,000.00,024.3,023.6,000.0,032.4,025.8,13.0,0000.0,0002.89,0001.23,0000.87
2023-12-20 16:49:00,SystemResetWarning,0830.0,5.00,000.00,024.3,023.7,000.0,032.5,025.8,13.7,0000.0,0002.51,0001.20,0000.86
2023-12-20 16:50:00,SystemResetWarning,0830.0,5.00,000.00,024.3,023.7,000.0,032.5,025.8,14.6,0000.0,0002.35,0001.20,0000.87
2023-12-20 16:51:00,SystemResetWarning,0830.0,5.00,000.00,024.4,023.7,000.0,032.5,025.8,15.3,0000.0,0002.48,0001.21,0000.86
2023-12-20 16:52:00,SystemResetWarning,0830.1,5.01,000.00,024.4,023.7,000.0,032.5,025.8,15.7,0000.0,0002.48,0001.19,0000.86
2023-12-20 16:53:00,SystemResetWarning,0830.0,5.00,000.00,024.4,023.7,000.0,032.5,025.9,15.8,0000.0,0002.45,0001.18,0000.86
2023-12-20 16:54:00,SystemResetWarning,0830.0,4.99,000.00,024.4,023.7,000.0,032.5,025.8,15.8,0000.0,0002.69,0001.23,0000.87
2023-12-20 16:55:00,SystemResetWarning,0830.0,5.00,000.00,024.4,023.7,000.0,032.5,025.7,15.7,0000.0,0003.00,0001.28,0000.90
2023-12-20 16:56:00,SystemResetWarning,0830.0,5.01,000.00,024.4,023.7,000.0,032.6,025.8,15.9,0000.0,0003.85,0001.38,0000.95
2023-12-20 16:57:00,SystemResetWarning,0830.0,5.01,000.00,024.4,023.7,000.0,032.6,025.9,15.9,0000.0,0004.23,0001.48,0001.00
2023-12-20 16:58:00,SystemResetWarning,0830.0,4.99,000.00,024.4,023.7,000.0,032.6,025.9,16.0,0000.0,0004.26,0001.53,0001.05
2023-12-20 16:59:00,SystemResetWarning,0830.1,5.00,000.00,024.4,023.7,000.0,032.6,025.9,16.0,0000.0,0004.29,0001.57,0001.08
